Wind_Speed
1 3 2 2 3 3 1 4 2 2 3 9 12 13 12 12 3 3 18 16 20 17 17 17 16 16 16 16 15 15 14 13 13 14 14 14 14 14 14 14 14 14 11 11 13 13 15 15 15
4 5 7 4 4 2 2 6 6 7 16 28 19 12 14 4 6 16 16 16 17 14 16 16 16 16 15 15 15 14 14 14 15 14 13 15 14 13 14 14 14 13 13 13 14 14 15 15 15
2 2 6 3 2 0 3 6 9 24 22 9 8 13 6 6 15 11 17 18 17 17 16 14 14 14 15 14 14 15 15 15 14 14 15 17 15 14 14 15 14 13 15 13 13 15 16 16 17
5 5 8 3 8 5 5 6 17 22 14 12 18 9 9 2 16 17 19 18 16 15 16 16 15 15 14 13 14 15 15 16 16 16 17 16 14 15 15 15 14 14 14 14 13 13 14 15 15
10 7 5 4 6 6 10 14 23 15 9 8 6 5 5 8 16 19 19 14 12 13 17 16 15 15 14 13 14 15 16 18 18 17 16 16 15 15 16 15 14 14 14 12 10 10 11 14 17
7 6 2 3 6 10 9 22 27 22 26 21 18 11 4 19 17 19 16 15 12 12 17 16 15 14 14 14 14 16 17 19 18 15 14 17 15 13 15 15 14 13 11 9 8 8 9 12 16
10 5 3 5 4 7 6 30 19 19 17 7 20 5 13 18 18 18 16 15 12 12 16 17 17 15 15 14 15 16 16 18 16 12 16 14 12 12 13 12 11 11 11 9 8 9 11 13 14
11 9 4 3 1 6 9 18 26 26 8 26 20 8 9 22 21 18 15 10 8 10 15 18 16 16 17 16 16 16 17 17 15 18 17 10 11 12 11 10 10 9 10 9 9 11 11 11 13
2 3 5 8 6 2 14 7 20 17 29 6 4 24 27 28 24 19 16 12 12 13 17 18 18 18 17 16 16 16 17 17 18 17 12 11 11 13 11 9 8 8 8 8 9 11 10 9 9
1 5 6 8 7 4 13 14 18 15 19 20 24 25 27 27 24 22 17 12 11 15 22 21 21 18 17 18 17 16 19 18 18 14 14 12 13 13 11 9 7 6 8 10 11 9 7 6 2
1 4 3 3 3 9 15 17 15 28 13 33 34 34 29 28 25 20 16 8 7 14 24 23 21 17 15 15 16 18 23 16 17 17 13 12 11 10 9 7 7 9 9 10 5 1 4 6 4
1 1 2 1 5 5 6 15 14 27 17 29 32 31 30 28 25 21 16 11 12 15 22 22 21 18 15 17 19 20 19 17 18 18 13 10 9 7 8 5 6 7 11 6 4 3 2 3 5
11 2 6 12 14 2 8 5 6 21 31 32 31 31 29 27 23 19 14 13 16 18 17 19 21 20 19 18 16 17 21 17 17 16 13 10 7 4 3 5 6 5 5 9 4 2 5 5 3
5 6 6 15 14 14 8 6 6 26 32 35 34 31 32 32 28 26 20 16 16 18 20 20 19 20 18 16 17 19 18 14 17 12 9 6 5 5 6 3 4 3 10 5 2 5 5 4 7
1 5 9 6 6 4 10 6 3 7 20 36 33 33 31 32 31 27 24 17 18 15 17 17 18 18 16 17 17 16 15 15 16 9 6 3 2 5 4 7 8 11 8 2 3 4 6 5 8
3 3 3 3 14 3 2 6 11 7 7 20 34 27 32 31 26 27 25 19 19 17 15 15 18 17 14 14 13 13 14 14 14 11 9 6 6 5 5 6 9 8 6 3 6 5 2 3 6
5 4 3 4 5 4 2 10 18 11 4 20 23 28 32 24 22 24 24 25 20 17 15 16 18 15 14 15 13 9 11 12 10 10 9 10 5 10 14 8 10 8 5 5 4 3 3 2 5
3 2 3 5 6 7 11 13 11 13 11 7 20 26 27 24 24 25 23 25 22 21 16 17 17 13 15 19 13 9 8 11 12 11 10 9 9 11 17 9 7 3 2 1 1 2 3 3 6
8 6 5 3 9 6 6 8 8 8 16 14 19 24 28 26 24 24 23 25 28 26 22 21 19 16 18 19 17 14 16 12 10 15 10 8 7 8 9 7 6 3 7 7 5 5 6 3 5
6 3 2 2 10 3 6 8 2 3 6 15 24 29 34 31 28 27 24 21 31 30 27 24 20 20 16 20 18 17 19 16 12 15 14 10 7 10 11 8 10 10 10 8 8 6 6 3 1
7 5 6 7 7 2 3 4 4 4 7 11 22 32 31 35 32 27 28 26 30 31 27 26 24 23 19 18 19 20 22 16 14 22 17 11 11 12 13 17 13 9 9 9 5 6 7 6 2
7 16 9 15 8 4 2 3 4 6 7 8 18 30 33 36 34 33 33 29 32 33 29 25 24 24 22 19 20 20 19 19 15 18 18 13 13 11 9 16 17 14 12 9 8 7 7 7 2
13 12 20 14 5 3 0 2 5 5 6 10 19 27 36 35 36 32 31 33 35 32 29 25 25 24 23 22 22 24 18 17 19 18 18 14 15 14 10 12 15 11 11 14 10 8 8 6 6
7 4 13 7 2 5 6 5 5 6 13 8 14 27 33 38 35 34 34 31 37 31 30 30 27 27 23 23 24 28 23 19 21 23 21 22 19 16 14 12 11 10 12 20 14 11 10 8 6
2 6 3 2 1 6 2 2 10 5 6 12 16 25 29 33 34 38 38 32 33 29 27 27 29 31 27 25 26 29 25 22 22 18 18 18 18 20 17 15 13 12 11 16 16 16 11 10 8
4 8 5 5 4 4 4 6 6 7 17 13 19 32 30 35 34 35 32 31 35 28 30 26 28 31 32 29 29 32 28 27 27 24 19 21 20 18 17 17 11 12 12 12 14 15 12 12 9
6 2 7 3 3 4 2 6 5 6 3 7 9 19 27 30 32 33 30 30 27 32 31 30 31 30 30 32 32 33 32 30 28 26 22 25 23 22 19 19 17 14 13 11 12 12 10 11 8
9 5 3 3 1 1 5 5 4 4 8 5 5 16 18 24 28 31 36 28 29 32 34 33 29 32 24 29 34 32 31 33 29 27 25 25 23 18 19 20 18 20 17 14 13 12 10 10 8
1 2 4 5 5 5 4 6 8 12 13 10 10 11 20 25 28 30 31 27 24 30 33 35 30 27 38 29 29 32 30 29 29 27 25 25 26 22 19 20 18 21 20 18 17 15 13 13 11
6 8 5 5 3 2 3 6 3 3 8 12 14 21 19 20 21 21 26 33 30 25 25 28 27 25 27 22 27 28 31 28 30 31 29 29 25 23 21 21 17 18 20 20 19 18 18 15 15
Wind_Direction
194 135 166 13 86 67 196 209 269 116 75 74 99 103 98 51 24 144 138 155 158 143 140 144 144 146 147 145 151 148 144 142 142 143 142 145 141 138 136 133 134 129 138 128 126 129 128 129 134
235 338 11 27 63 8 319 122 122 101 121 104 82 82 52 75 80 137 149 155 177 154 140 142 148 152 153 150 151 153 155 150 140 137 143 141 136 132 135 139 132 133 132 128 127 126 130 134 136
102 5 7 26 50 112 209 168 152 131 132 108 109 65 77 101 119 142 150 147 164 177 161 158 151 151 153 157 154 158 156 150 148 136 137 134 128 127 126 137 139 136 136 140 133 132 134 139 139
42 35 44 47 328 291 318 144 104 115 80 70 110 70 79 165 151 148 150 149 146 156 168 166 163 160 157 154 159 159 156 150 143 135 132 129 131 129 123 132 136 138 139 134 130 129 132 143 151
67 57 40 305 295 292 349 111 117 95 95 88 85 89 74 140 151 150 152 158 162 158 166 169 165 164 159 156 155 159 156 148 145 141 139 129 124 123 126 130 132 136 135 131 126 125 134 146 161
55 43 131 265 274 298 295 113 101 94 109 100 94 93 90 140 142 146 154 162 169 162 169 167 165 164 162 159 154 156 152 147 146 142 136 130 130 133 128 132 138 140 133 125 115 113 120 143 152
66 5 279 214 343 308 157 134 129 133 132 102 132 94 144 147 141 145 156 168 165 160 167 164 163 158 158 160 159 161 155 156 155 147 142 136 133 131 136 133 137 139 129 122 118 119 119 132 151
116 183 218 240 193 278 322 131 140 133 100 136 121 151 161 152 147 152 157 164 184 183 183 177 170 164 160 156 155 154 153 153 151 150 146 137 131 140 140 129 133 133 130 123 123 119 123 133 151
167 258 190 189 184 243 296 65 147 132 141 149 147 147 154 157 156 154 158 169 184 188 182 177 168 160 156 155 159 156 156 159 154 154 142 144 141 144 134 130 130 133 127 125 131 124 128 137 137
160 216 228 194 178 226 294 333 134 134 141 112 123 139 154 160 165 164 167 165 177 176 175 166 160 160 162 159 156 156 151 155 158 153 133 126 127 126 141 140 145 153 152 145 124 108 93 73 178
154 299 340 235 340 269 302 328 147 123 138 148 146 153 160 169 173 169 163 135 140 157 169 168 163 158 150 157 152 147 149 145 147 138 137 131 118 107 123 128 146 146 144 136 126 81 59 65 5
124 170 14 138 192 232 283 325 166 145 166 155 147 153 158 165 170 171 162 146 141 144 171 173 167 159 148 147 146 149 144 140 139 135 131 122 118 119 106 105 112 127 132 116 94 69 90 41 342
56 11 29 62 50 159 292 353 326 135 153 155 152 160 165 168 175 173 162 149 137 129 142 154 157 155 150 149 154 155 148 133 142 137 142 144 154 168 139 144 144 150 150 133 117 51 39 11 334
105 76 59 56 39 344 315 338 125 152 154 157 161 167 175 176 178 172 184 173 161 143 135 143 152 165 163 149 150 149 156 151 146 149 155 144 171 189 170 164 190 177 146 136 80 353 6 348 300
134 155 112 133 126 238 283 360 47 165 168 164 166 176 179 180 179 184 186 187 178 165 156 153 155 163 160 153 149 148 152 152 158 166 164 200 220 181 170 205 162 142 135 123 22 5 351 310 322
42 61 103 221 161 205 63 276 289 129 181 176 178 173 181 180 187 191 193 194 185 180 182 176 174 171 171 169 166 162 169 164 162 170 184 207 221 225 207 147 177 153 162 103 52 29 45 359 341
8 141 147 161 238 138 77 208 238 191 324 159 164 172 179 184 188 188 194 195 187 173 169 178 185 189 175 178 177 172 175 168 173 192 196 204 190 150 154 154 160 157 161 60 71 62 99 357 350
156 203 187 142 181 174 189 232 263 222 241 198 164 182 183 187 184 193 202 197 195 187 178 175 175 177 192 188 188 194 198 175 190 190 182 183 198 175 175 151 154 181 164 67 181 320 327 356 344
145 162 166 204 171 181 200 251 207 206 199 231 186 183 185 195 195 194 194 206 205 193 190 187 192 188 194 199 201 209 196 197 193 191 175 188 192 195 187 184 195 217 217 226 243 270 267 304 356
177 141 105 126 175 130 241 220 256 285 196 194 191 185 196 194 202 204 206 201 200 194 195 193 202 194 199 201 205 201 187 201 200 198 192 201 227 221 222 223 233 226 220 237 241 254 241 262 332
208 173 198 154 157 41 159 284 205 221 175 182 199 200 203 193 192 197 195 203 201 198 197 199 203 203 206 209 201 194 204 199 202 185 198 208 229 227 229 222 229 236 249 232 231 228 213 229 242
210 203 210 143 146 199 181 250 258 239 266 187 188 204 195 196 195 194 206 205 207 203 200 213 212 212 218 214 211 207 204 209 213 210 205 231 223 227 240 229 235 244 244 239 235 219 202 204 173
226 177 191 175 120 101 250 352 245 178 240 236 222 206 204 205 198 206 202 207 202 205 209 217 221 221 223 223 223 211 219 236 228 219 227 213 215 220 242 216 226 230 234 226 231 224 217 208 199
215 134 153 97 110 6 247 211 261 182 213 217 202 201 203 211 212 211 202 203 204 210 216 214 220 227 229 227 222 213 219 231 228 235 233 218 220 226 244 222 216 226 241 218 220 216 218 226 231
130 64 118 129 195 216 265 219 254 258 214 206 174 202 205 210 206 211 208 211 207 206 206 211 222 228 233 225 221 215 222 230 230 230 225 214 223 224 237 231 230 238 238 214 218 216 217 218 233
166 146 156 201 193 247 151 232 252 249 207 176 196 202 204 211 208 211 208 212 215 215 210 214 226 231 230 233 221 221 224 232 236 234 236 231 226 229 228 234 227 236 221 223 216 208 219 221 216
258 143 192 137 81 119 248 290 318 13 348 150 185 197 194 205 211 218 216 214 225 227 225 232 234 232 236 237 231 221 224 229 235 238 245 231 233 231 235 236 230 230 220 213 220 212 209 210 198
161 181 38 15 59 32 315 290 227 261 249 238 220 208 194 210 213 224 222 217 218 224 220 231 228 228 231 243 240 229 224 228 231 236 237 232 226 235 239 236 233 236 223 207 215 224 223 220 232
301 255 80 115 130 158 165 258 207 210 214 200 205 200 190 205 200 215 217 211 222 227 235 229 249 231 234 235 235 237 229 230 234 235 235 230 239 244 239 232 248 230 226 212 215 233 243 247 247
183 199 139 126 243 131 172 266 257 257 174 189 148 165 164 181 185 199 208 203 210 209 221 233 221 217 216 219 228 232 238 232 231 237 237 234 236 239 238 235 230 235 224 222 228 236 245 255 242
Height
1522 1521 1520 1518 1526 1523 1522 1521 1513 1511 1513 1514 1513 1514 1522 1526 1528 1537 1534 1537 1541 1542 1542 1543 1546 1547 1548 1549 1551 1551 1552 1553 1554 1555 1555 1556 1557 1558 1560 1561 1562 1564 1567 1566 1566 1568 1569 1570 1570
1523 1522 1521 1518 1528 1532 1525 1509 1512 1511 1514 1514 1518 1520 1522 1530 1530 1532 1534 1538 1541 1542 1542 1544 1546 1547 1549 1550 1551 1552 1553 1553 1554 1554 1555 1557 1557 1559 1560 1562 1565 1565 1567 1568 1568 1569 1570 1572 1574
1525 1523 1523 1525 1531 1533 1526 1509 1508 1511 1515 1513 1519 1524 1527 1533 1534 1534 1536 1538 1540 1542 1543 1544 1546 1547 1548 1550 1551 1553 1554 1554 1555 1556 1557 1558 1559 1560 1560 1563 1565 1566 1568 1569 1569 1570 1571 1572 1573
1525 1526 1528 1534 1536 1520 1513 1509 1510 1513 1516 1518 1520 1527 1532 1534 1533 1536 1537 1539 1541 1542 1543 1544 1546 1547 1548 1549 1551 1552 1554 1556 1557 1558 1559 1560 1561 1562 1562 1564 1566 1568 1569 1570 1572 1573 1574 1575 1576
1528 1530 1538 1543 1536 1521 1517 1509 1511 1516 1519 1522 1520 1532 1533 1534 1535 1537 1539 1541 1542 1543 1544 1546 1546 1547 1548 1550 1551 1553 1555 1557 1559 1560 1561 1561 1563 1563 1564 1565 1568 1570 1570 1572 1574 1574 1575 1576 1576
1532 1542 1549 1548 1535 1523 1515 1512 1513 1519 1523 1525 1527 1531 1538 1538 1538 1539 1541 1542 1544 1544 1545 1545 1546 1547 1549 1550 1552 1555 1557 1559 1560 1562 1563 1562 1563 1564 1565 1568 1569 1571 1573 1575 1576 1576 1577 1577 1579
1542 1547 1548 1541 1534 1526 1514 1511 1513 1520 1522 1526 1528 1534 1539 1540 1541 1542 1543 1544 1544 1545 1545 1545 1547 1548 1549 1551 1553 1555 1557 1560 1561 1563 1564 1564 1565 1567 1568 1569 1571 1573 1575 1576 1576 1577 1577 1578 1581
1534 1534 1548 1542 1536 1528 1515 1511 1512 1515 1524 1527 1526 1534 1538 1540 1542 1543 1544 1544 1545 1545 1545 1546 1548 1549 1550 1552 1553 1555 1558 1561 1562 1563 1565 1566 1566 1567 1569 1571 1573 1575 1576 1576 1577 1578 1579 1580 1582
1535 1538 1547 1539 1532 1523 1517 1514 1516 1518 1523 1527 1528 1529 1535 1539 1542 1543 1544 1545 1545 1544 1545 1546 1548 1550 1552 1554 1556 1557 1559 1562 1563 1565 1566 1567 1568 1569 1571 1573 1575 1577 1578 1578 1577 1578 1579 1580 1583
1535 1537 1534 1524 1521 1523 1516 1521 1515 1522 1528 1530 1531 1534 1537 1540 1541 1541 1543 1544 1544 1543 1545 1547 1549 1551 1553 1555 1556 1558 1560 1563 1564 1566 1568 1568 1570 1570 1571 1573 1575 1576 1577 1578 1579 1581 1581 1582 1583
1533 1533 1528 1525 1526 1526 1524 1520 1513 1520 1530 1524 1527 1533 1536 1541 1543 1544 1544 1544 1543 1543 1545 1548 1550 1553 1555 1556 1557 1560 1562 1564 1566 1567 1568 1570 1570 1571 1572 1573 1574 1576 1578 1580 1580 1582 1581 1582 1582
1529 1526 1527 1527 1526 1528 1527 1524 1523 1515 1524 1526 1527 1531 1536 1541 1543 1544 1545 1545 1544 1544 1546 1548 1552 1555 1556 1557 1560 1562 1564 1566 1567 1568 1570 1570 1570 1571 1572 1573 1574 1577 1580 1581 1582 1582 1582 1582 1583
1517 1525 1526 1527 1527 1528 1528 1522 1522 1522 1524 1528 1530 1533 1535 1539 1543 1545 1546 1547 1547 1547 1548 1550 1553 1556 1556 1558 1561 1562 1564 1567 1568 1569 1569 1569 1571 1571 1574 1574 1576 1578 1579 1581 1582 1582 1582 1581 1580
1517 1522 1525 1527 1523 1526 1526 1521 1518 1524 1525 1529 1531 1535 1537 1538 1540 1544 1547 1548 1549 1550 1551 1554 1556 1557 1558 1558 1561 1562 1565 1567 1568 1568 1570 1570 1571 1572 1574 1574 1577 1577 1580 1581 1583 1583 1582 1582 1582
1519 1525 1525 1527 1529 1530 1527 1525 1527 1529 1530 1528 1530 1533 1536 1537 1541 1541 1543 1546 1549 1551 1553 1554 1558 1559 1560 1562 1563 1564 1566 1567 1568 1569 1570 1571 1572 1573 1573 1575 1577 1578 1579 1581 1583 1583 1581 1581 1579
1523 1525 1532 1531 1528 1530 1528 1542 1525 1527 1529 1531 1530 1535 1536 1536 1538 1541 1544 1547 1549 1551 1553 1555 1556 1559 1563 1564 1565 1567 1568 1568 1569 1569 1570 1572 1572 1573 1574 1576 1578 1579 1578 1579 1581 1582 1583 1580 1580
1528 1535 1534 1532 1527 1527 1532 1536 1524 1526 1528 1526 1531 1533 1535 1537 1538 1541 1543 1545 1546 1550 1552 1554 1556 1559 1562 1564 1565 1567 1568 1568 1568 1569 1570 1572 1573 1573 1575 1578 1578 1578 1578 1578 1579 1581 1583 1582 1581
1532 1535 1529 1531 1528 1528 1531 1529 1522 1524 1528 1527 1529 1531 1533 1535 1536 1538 1540 1544 1546 1549 1551 1553 1556 1559 1562 1564 1566 1567 1568 1568 1568 1569 1571 1572 1574 1574 1575 1576 1578 1577 1576 1577 1579 1580 1581 1582 1581
1519 1522 1525 1522 1518 1522 1525 1523 1517 1519 1523 1525 1527 1529 1531 1533 1535 1537 1539 1541 1543 1546 1548 1551 1554 1558 1560 1563 1565 1566 1568 1568 1569 1570 1571 1572 1574 1574 1574 1576 1577 1577 1576 1578 1578 1579 1579 1581 1581
1515 1518 1522 1521 1516 1523 1523 1520 1516 1516 1517 1520 1523 1523 1525 1527 1532 1534 1537 1537 1540 1542 1546 1549 1552 1556 1560 1563 1566 1567 1569 1570 1570 1571 1571 1573 1573 1575 1574 1576 1577 1577 1577 1577 1578 1579 1579 1580 1581
1512 1516 1514 1516 1518 1523 1526 1530 1521 1516 1511 1514 1516 1519 1521 1522 1524 1529 1533 1534 1538 1541 1543 1548 1551 1554 1558 1562 1565 1566 1567 1569 1569 1570 1571 1572 1574 1575 1575 1576 1578 1577 1577 1577 1577 1577 1579 1579 1580
1517 1501 1503 1512 1527 1538 1523 1540 1520 1513 1507 1507 1510 1513 1516 1520 1522 1526 1529 1532 1535 1539 1543 1547 1550 1554 1557 1560 1563 1564 1565 1567 1569 1570 1572 1572 1573 1574 1575 1575 1576 1577 1577 1576 1577 1577 1578 1579 1578
1497 1487 1496 1506 1525 1531 1532 1542 1515 1512 1512 1506 1505 1509 1512 1516 1518 1520 1526 1529 1533 1538 1542 1546 1550 1553 1556 1559 1562 1565 1565 1567 1569 1570 1570 1571 1572 1572 1573 1573 1574 1574 1574 1575 1575 1576 1578 1578 1578
1475 1482 1499 1517 1530 1546 1530 1533 1507 1509 1498 1497 1501 1505 1508 1513 1516 1518 1523 1526 1532 1536 1539 1542 1547 1551 1553 1556 1560 1563 1565 1566 1568 1568 1569 1569 1570 1570 1570 1570 1571 1572 1573 1574 1574 1574 1575 1577 1578
1474 1499 1529 1541 1545 1545 1518 1529 1508 1485 1487 1486 1495 1500 1505 1509 1513 1515 1519 1522 1528 1531 1535 1539 1542 1545 1550 1552 1556 1560 1563 1564 1565 1566 1567 1567 1568 1569 1569 1569 1570 1571 1573 1574 1573 1573 1575 1575 1576
1481 1496 1522 1538 1546 1532 1520 1527 1502 1474 1476 1484 1492 1495 1502 1506 1510 1512 1515 1523 1526 1530 1532 1534 1538 1540 1544 1549 1551 1555 1559 1562 1563 1564 1564 1565 1566 1568 1569 1569 1570 1570 1571 1572 1572 1572 1572 1573 1573
1479 1492 1481 1498 1513 1529 1528 1502 1483 1477 1480 1485 1491 1495 1498 1501 1505 1510 1514 1515 1522 1523 1527 1530 1534 1538 1540 1544 1548 1550 1554 1557 1560 1562 1563 1564 1565 1566 1568 1568 1568 1569 1569 1570 1571 1572 1570 1570 1571
1468 1469 1496 1508 1523 1539 1530 1519 1511 1489 1485 1485 1488 1490 1495 1499 1504 1504 1507 1512 1517 1521 1522 1525 1530 1533 1536 1541 1545 1548 1548 1552 1554 1558 1560 1561 1563 1564 1564 1565 1565 1566 1567 1567 1568 1569 1569 1568 1569
1473 1479 1485 1498 1509 1534 1544 1524 1480 1478 1476 1481 1484 1490 1493 1496 1499 1501 1506 1511 1514 1517 1518 1523 1523 1524 1531 1536 1541 1546 1545 1548 1550 1552 1554 1556 1559 1561 1563 1563 1562 1563 1564 1564 1565 1566 1567 1566 1567
1460 1468 1481 1509 1505 1514 1516 1514 1471 1470 1475 1482 1485 1489 1492 1496 1499 1501 1505 1510 1512 1516 1519 1520 1520 1523 1527 1532 1536 1538 1541 1542 1543 1546 1550 1552 1554 1557 1559 1561 1561 1562 1562 1562 1562 1563 1564 1564 1565